CZ-6A DEB, 64657

Orbit data source: Space-Track

CZ-6A DEB, 64657 is space debris in LEO originally from a launch on Tue, 06 Aug 2024 UTC launched from the Taiyaun Space Center, China (TSC). Debris objects in space refer to the collection of defunct objects orbiting the Earth. Examples of debris include non-operational satellites, rocket bodies, and fragments generated from explosions, collisions, or faulty payload assembly.

Loading next visibility...
Identifier
64657, 2024-140AEX
Orbit
LEO
Country
Flag of CNCN / PRC
Related business
Manufacturer
SAST
Mission
Spacecraft
Bus & Motor
Unknown
Mass
Unknown
Launch date (UTC)
2024-08-06 (2 years ago)
Launch vehicle
Unknown
Launch site
Taiyaun Space Center, China (TSC)
Object type
Payload
Rocket body
Debris
Shape & HBR
Unknown shape, 0.1 m
Radar Cross Section
Medium (>0.1 m² and <1 m²)

Expand to show TLE details & history
Last TLE update: 18 hours ago

TLE from 18 hours ago
0 CZ-6A DEB
1 64657U 24140AEX 26171.10065783  .00002382  00000-0  76119-3 0  9998
2 64657  88.2990 215.0429 0038490  22.4356 337.8516 14.38949558 86783
Epoch: 2026-06-20T02:24Z
TLE epoch observation values (Epoch: 2026-06-20T02:24:56.836Z)
Latitude
-0.00009°
Longitude
-89.51404°
Altitude
739.603 km
Speed
7.498 km/s
True Right ascension
14h 20m 10s
True Declination
0° 00' 00"
Sunlit
Object was in full shadow at epoch
Visualization orbit readout
Latitude
Unknown
Longitude
Unknown
Altitude
Unknown
Speed
Unknown
Apparent Right ascension
Unknown
Apparent Declination
Unknown
Sunlit
N/A
Visualization observer readout
Local Sidereal Time
07:18:36
Azimuth
Unknown
Elevation
Unknown
Doppler factor
Unknown
Orbital elements
Apogee altitude
786.371 km
Perigee altitude
731.43 km
Semi-major axis
7,137.038 km
Eccentricity
0.00385
Inclination
88.299°
RAAN
215.0429°
Arg. of periapsis
22.4356°
True anomaly
337.68457°
Mean anomaly
337.8516°
Eccentric anomaly
337.76816°
Mean motion
3.5997 °/min
Orbital period
100.01 mins
BSTAR
0.00076119
Loading maneuver chart data...
Computing Atmospheric mass density...
Loading historical data...
Loading historical data...
Loading historical data...
Loading historical data...
Loading historical data...
Loading historical data...
Loading historical data...

Documentation

Showing up to 5 results
|